Time,TemperatureF,DewpointF,PressureIn,WindDirection,WindDirectionDegrees,WindSpeedMPH,WindSpeedGustMPH,Humidity,HourlyPrecipIn,Conditions,Clouds,dailyrainin,SoftwareType,DateUTC
2013-04-01 06:53:00,64.0,54.0,29.99,WNW,294,1.0,5.0,69,0.00,,,0.00,,2013-04-01 16:53:00,
2013-04-01 07:03:00,64.0,54.0,30.00,WNW,299,2.0,6.0,70,0.00,,,0.00,,2013-04-01 17:03:00,
2013-04-01 07:12:00,64.0,54.0,30.00,WNW,299,2.0,6.0,70,0.00,,,0.00,,2013-04-01 17:12:00,
2013-04-01 07:22:00,65.0,55.0,30.00,West,273,2.0,7.0,70,0.00,,,0.00,,2013-04-01 17:22:00,
2013-04-01 07:31:00,65.0,55.0,30.00,West,273,2.0,7.0,70,0.00,,,0.00,,2013-04-01 17:31:00,
2013-04-01 07:41:00,65.0,55.0,30.00,West,273,2.0,7.0,70,0.00,,,0.00,,2013-04-01 17:41:00,
2013-04-01 07:52:00,65.0,55.0,30.01,WNW,296,2.0,5.0,70,0.00,,,0.00,,2013-04-01 17:52:00,
2013-04-01 08:01:00,65.0,54.0,30.01,NNW,333,0.0,4.0,68,0.00,,,0.00,,2013-04-01 18:01:00,
2013-04-01 08:21:00,65.0,55.0,30.01,WNW,287,1.0,6.0,69,0.00,,,0.00,,2013-04-01 18:21:00,
2013-04-01 08:32:00,65.0,55.0,30.01,NW,304,4.0,12.0,70,0.00,,,0.00,,2013-04-01 18:32:00,
2013-04-01 08:42:00,65.0,55.0,30.01,NW,304,4.0,12.0,70,0.00,,,0.00,,2013-04-01 18:42:00,
2013-04-01 08:52:00,66.0,56.0,30.01,West,267,0.0,4.0,69,0.00,,,0.00,,2013-04-01 18:52:00,
2013-04-01 09:02:00,67.0,55.0,30.01,West,265,1.0,3.0,66,0.00,,,0.00,,2013-04-01 19:02:00,
2013-04-01 09:12:00,67.0,55.0,30.01,West,265,1.0,3.0,66,0.00,,,0.00,,2013-04-01 19:12:00,
2013-04-01 09:31:00,68.0,54.0,30.01,WNW,296,3.0,7.0,62,0.00,,,0.00,,2013-04-01 19:31:00,
2013-04-01 09:42:00,68.0,54.0,30.01,WNW,296,3.0,7.0,62,0.00,,,0.00,,2013-04-01 19:42:00,
2013-04-01 09:53:00,68.0,54.0,30.01,WNW,287,5.0,9.0,61,0.00,,,0.00,,2013-04-01 19:53:00,
2013-04-01 10:01:00,68.0,54.0,30.01,NW,306,5.0,10.0,60,0.00,,,0.00,,2013-04-01 20:01:00,
2013-04-01 10:12:00,68.0,54.0,30.01,NW,306,5.0,10.0,60,0.00,,,0.00,,2013-04-01 20:12:00,
2013-04-01 10:22:00,69.0,55.0,30.01,North,355,4.0,9.0,62,0.00,,,0.00,,2013-04-01 20:22:00,
2013-04-01 10:32:00,68.0,54.0,30.01,NE,52,7.0,13.0,62,0.00,,,0.00,,2013-04-01 20:32:00,
2013-04-01 10:42:00,68.0,54.0,30.01,NE,52,7.0,13.0,62,0.00,,,0.00,,2013-04-01 20:42:00,
2013-04-01 10:52:00,68.0,54.0,30.01,NW,325,4.0,11.0,62,0.00,,,0.00,,2013-04-01 20:52:00,
2013-04-01 11:02:00,69.0,55.0,30.01,NW,322,6.0,10.0,61,0.00,,,0.00,,2013-04-01 21:02:00,
2013-04-01 11:11:00,69.0,55.0,30.01,NW,322,6.0,10.0,61,0.00,,,0.00,,2013-04-01 21:11:00,
2013-04-01 11:22:00,70.0,55.0,30.00,WSW,256,6.0,11.0,58,0.00,,,0.00,,2013-04-01 21:22:00,
2013-04-01 11:32:00,70.0,54.0,29.99,NW,306,10.0,15.0,57,0.00,,,0.00,,2013-04-01 21:32:00,
2013-04-01 11:43:00,70.0,54.0,29.99,NW,306,10.0,15.0,57,0.00,,,0.00,,2013-04-01 21:43:00,
2013-04-01 11:53:00,70.0,55.0,29.99,West,273,10.0,20.0,59,0.00,,,0.00,,2013-04-01 21:53:00,
2013-04-01 12:02:00,70.0,55.0,29.99,West,280,8.0,14.0,59,0.00,,,0.00,,2013-04-01 22:02:00,
2013-04-01 12:12:00,70.0,55.0,29.99,West,280,8.0,14.0,59,0.00,,,0.00,,2013-04-01 22:12:00,
2013-04-01 12:22:00,69.0,53.0,29.99,WNW,298,15.0,22.0,57,0.00,,,0.00,,2013-04-01 22:22:00,
2013-04-01 12:32:00,69.0,54.0,29.98,West,276,10.0,18.0,58,0.00,,,0.00,,2013-04-01 22:32:00,
2013-04-01 12:42:00,69.0,54.0,29.98,West,276,10.0,18.0,58,0.00,,,0.00,,2013-04-01 22:42:00,
2013-04-01 12:52:00,68.0,56.0,29.99,North,350,10.0,21.0,65,0.00,,,0.00,,2013-04-01 22:52:00,
2013-04-01 13:01:00,68.0,55.0,29.98,WNW,286,9.0,17.0,63,0.00,,,0.00,,2013-04-01 23:01:00,
2013-04-01 13:11:00,68.0,55.0,29.98,WNW,286,9.0,17.0,63,0.00,,,0.00,,2013-04-01 23:11:00,
2013-04-01 13:22:00,67.0,55.0,29.98,NW,315,11.0,20.0,65,0.00,,,0.00,,2013-04-01 23:22:00,
2013-04-01 13:32:00,67.0,55.0,29.97,WNW,291,9.0,20.0,65,0.00,,,0.00,,2013-04-01 23:32:00,
2013-04-01 13:42:00,67.0,55.0,29.97,WNW,291,9.0,20.0,65,0.00,,,0.00,,2013-04-01 23:42:00,
2013-04-01 13:52:00,69.0,56.0,29.97,NW,316,5.0,9.0,64,0.00,,,0.00,,2013-04-01 23:52:00,
2013-04-01 14:02:00,70.0,56.0,29.96,West,265,1.0,10.0,62,0.00,,,0.00,,2013-04-02 00:02:00,
2013-04-01 14:11:00,70.0,56.0,29.96,West,265,1.0,10.0,62,0.00,,,0.00,,2013-04-02 00:11:00,
2013-04-01 14:21:00,70.0,55.0,29.96,NW,314,4.0,8.0,59,0.00,,,0.00,,2013-04-02 00:21:00,
2013-04-01 14:32:00,70.0,55.0,29.94,West,278,2.0,7.0,60,0.00,,,0.00,,2013-04-02 00:32:00,
2013-04-01 14:42:00,70.0,55.0,29.94,West,278,2.0,7.0,60,0.00,,,0.00,,2013-04-02 00:42:00,
2013-04-01 14:52:00,70.0,57.0,29.94,North,349,3.0,10.0,63,0.00,,,0.00,,2013-04-02 00:52:00,
2013-04-01 15:01:00,70.0,56.0,29.94,ENE,57,3.0,5.0,62,0.00,,,0.00,,2013-04-02 01:01:00,
2013-04-01 15:11:00,70.0,56.0,29.94,ENE,57,3.0,5.0,62,0.00,,,0.00,,2013-04-02 01:11:00,
2013-04-01 15:21:00,70.0,56.0,29.94,ESE,109,4.0,9.0,62,0.00,,,0.00,,2013-04-02 01:21:00,
2013-04-01 15:31:00,69.0,58.0,29.94,ESE,107,6.0,10.0,67,0.00,,,0.00,,2013-04-02 01:31:00,
2013-04-01 15:42:00,69.0,58.0,29.94,ESE,107,6.0,10.0,67,0.00,,,0.00,,2013-04-02 01:42:00,
2013-04-01 15:52:00,69.0,58.0,29.94,East,98,5.0,10.0,67,0.00,,,0.00,,2013-04-02 01:52:00,
2013-04-01 16:01:00,68.0,57.0,29.94,East,93,9.0,13.0,68,0.00,,,0.00,,2013-04-02 02:01:00,
2013-04-01 16:11:00,68.0,57.0,29.94,East,93,9.0,13.0,68,0.00,,,0.00,,2013-04-02 02:11:00,
2013-04-01 16:21:00,68.0,57.0,29.94,ENE,76,7.0,11.0,69,0.00,,,0.00,,2013-04-02 02:21:00,
2013-04-01 16:32:00,68.0,57.0,29.94,East,83,0.0,5.0,69,0.00,,,0.00,,2013-04-02 02:32:00,
2013-04-01 16:42:00,68.0,57.0,29.94,East,83,0.0,5.0,69,0.00,,,0.00,,2013-04-02 02:42:00,
2013-04-01 16:52:00,68.0,56.0,29.94,WNW,298,7.0,12.0,66,0.00,,,0.00,,2013-04-02 02:52:00,
2013-04-01 17:01:00,69.0,58.0,29.94,WNW,286,6.0,12.0,67,0.00,,,0.00,,2013-04-02 03:01:00,
2013-04-01 17:11:00,69.0,58.0,29.94,WNW,286,6.0,12.0,67,0.00,,,0.00,,2013-04-02 03:11:00,
2013-04-01 17:21:00,69.0,57.0,29.94,ENE,69,3.0,8.0,66,0.00,,,0.00,,2013-04-02 03:21:00,
2013-04-01 17:33:00,69.0,58.0,29.95,ENE,78,3.0,5.0,68,0.00,,,0.00,,2013-04-02 03:33:00,
2013-04-01 17:42:00,69.0,58.0,29.95,ENE,78,3.0,5.0,68,0.00,,,0.00,,2013-04-02 03:42:00,
2013-04-01 17:53:00,69.0,58.0,29.95,ENE,78,0.0,2.0,68,0.00,,,0.00,,2013-04-02 03:53:00,
2013-04-01 18:02:00,68.0,58.0,29.95,WNW,284,3.0,6.0,70,0.00,,,0.00,,2013-04-02 04:02:00,
2013-04-01 18:12:00,68.0,58.0,29.95,WNW,284,3.0,6.0,70,0.00,,,0.00,,2013-04-02 04:12:00,
2013-04-01 18:22:00,68.0,58.0,29.96,West,269,0.0,4.0,70,0.00,,,0.00,,2013-04-02 04:22:00,
2013-04-01 18:32:00,67.0,57.0,29.96,WNW,284,2.0,8.0,70,0.00,,,0.00,,2013-04-02 04:32:00,
2013-04-01 18:42:00,67.0,57.0,29.96,WNW,284,2.0,8.0,70,0.00,,,0.00,,2013-04-02 04:42:00,
2013-04-01 18:53:00,67.0,56.0,29.97,West,279,4.0,8.0,68,0.00,,,0.00,,2013-04-02 04:53:00,
2013-04-01 19:01:00,67.0,56.0,29.97,West,279,3.0,6.0,68,0.00,,,0.00,,2013-04-02 05:01:00,
2013-04-01 19:11:00,67.0,56.0,29.97,West,279,3.0,6.0,68,0.00,,,0.00,,2013-04-02 05:11:00,
2013-04-01 19:22:00,66.0,54.0,29.98,WNW,286,1.0,13.0,66,0.00,,,0.00,,2013-04-02 05:22:00,
2013-04-01 19:32:00,66.0,54.0,29.98,WNW,297,1.0,9.0,66,0.00,,,0.00,,2013-04-02 05:32:00,
2013-04-01 19:42:00,66.0,54.0,29.98,WNW,297,1.0,9.0,66,0.00,,,0.00,,2013-04-02 05:42:00,
2013-04-01 19:52:00,66.0,55.0,29.99,North,355,4.0,9.0,68,0.00,,,0.00,,2013-04-02 05:52:00,
2013-04-01 20:02:00,65.0,55.0,29.99,NNE,26,1.0,10.0,70,0.00,,,0.00,,2013-04-02 06:02:00,
2013-04-01 20:11:00,65.0,55.0,29.99,NNE,26,1.0,10.0,70,0.00,,,0.00,,2013-04-02 06:11:00,
2013-04-01 20:21:00,66.0,55.0,30.00,North,355,4.0,12.0,67,0.00,,,0.00,,2013-04-02 06:21:00,
2013-04-01 20:31:00,66.0,54.0,30.00,North,360,9.0,16.0,66,0.00,,,0.00,,2013-04-02 06:31:00,
2013-04-01 20:42:00,66.0,54.0,30.00,North,360,9.0,16.0,66,0.00,,,0.00,,2013-04-02 06:42:00,
2013-04-01 20:52:00,66.0,55.0,30.01,NNE,17,6.0,12.0,67,0.00,,,0.00,,2013-04-02 06:52:00,
2013-04-01 21:01:00,65.0,53.0,30.01,NW,315,2.0,9.0,66,0.00,,,0.00,,2013-04-02 07:01:00,
2013-04-01 21:10:00,65.0,54.0,30.02,NW,319,5.0,12.0,67,0.00,,,0.00,,2013-04-02 07:10:00,
2013-04-01 21:11:00,65.0,53.0,30.01,NW,315,2.0,9.0,66,0.00,,,0.00,,2013-04-02 07:11:00,
2013-04-01 21:21:00,66.0,54.0,30.01,North,360,3.0,13.0,65,0.00,,,0.00,,2013-04-02 07:21:00,
2013-04-01 21:31:00,65.0,54.0,30.02,NW,319,5.0,12.0,67,0.00,,,0.00,,2013-04-02 07:31:00,
2013-04-01 21:41:00,65.0,54.0,30.02,NW,319,5.0,12.0,67,0.00,,,0.00,,2013-04-02 07:41:00,
2013-04-01 21:52:00,65.0,54.0,30.02,NW,319,5.0,12.0,67,0.00,,,0.00,,2013-04-02 07:52:00,
2013-04-01 22:01:00,65.0,54.0,30.02,NW,319,5.0,12.0,67,0.00,,,0.00,,2013-04-02 08:01:00,